Airfield :
LOGIN :

Register | Disclaimer

   EN    FR    IT 

 










Legend :    VFR   Marginal VFR   IFR   Intensive IFR   Very Intensive IFR
Visi :
Ceiling :
>= 8 km
>= 3000ft
5 to 8 km
1000 to 3000 ft
1500m to 5 km
500 to 1000 ft
800 to 1500m
200 to 500 ft
< 800m
< 200 ft
Symbols :   Thunderstorms  Fog  Heavy snow  Heavy precipitations  Wind > 20 kt
SIGMETs :     Misc.  Thunderstorms  Icing  Turbulence  Mountain Waves  Volcanic Ashes







- Airport Elevation : 125 ft
- IATA code : MGL


EDLN - Mönchengladbach

CURRENT METAR :
  • 151150Z 18006KT 120V230 CAVOK 25/10 Q1012

EXPIRED METARs :
  • 151120Z 15006KT 080V250 CAVOK 24/10 Q1012
  • 151050Z 14006KT 090V210 CAVOK 24/11 Q1013
  • 151020Z 14006KT 110V250 CAVOK 23/11 Q1013
  • 150950Z 14006KT 100V170 CAVOK 21/11 Q1013
  • 150920Z 14007KT 110V170 CAVOK 20/10 Q1012

TAF TAF EDLN
Valid from the 15 at 12:00 until the 15 at 21:00 UTC


151100Z 1512/1521 15006KT CAVOK
BECMG 1515/1517 VRB02KT
No reported NOTAMs for that airfield.



MET'MAP, your aeronautical weather chart ! - Copyright ORBIFLY December 2007 - Disclaimer

ORBIFLY MET'MAP TEAM :

Programming & Development : Alexandra Zaïnal
Concept & Development : Baudouin d'Aumeries
Co-Development & Prog : Marc-Olivier Méhu
Technical & hardware support : Manuel Goepfert

Contact : metmap@orbifly.com




SOURCES & CREDITS :

   NOAA